Location: Palomar Mountain Lodge
(33.3110°N, 116.8495°W)
Time: 21:20:36
(UTC-07:00)

Cosmos 1656 Rocket - Pass Details

Date: 12 July 2018
Orbit: 796 x 846 km, 71.1° (Epoch: 22 July)

Event Time Altitude Azimuth Distance (km) Brightness Sun altitude
Rises 21:05:04 0° 186° (S) 3,379 6.5 -12.6°
Reaches altitude 10° 21:07:34 10° 182° (S) 2,444 5.8 -13.0°
Maximum altitude 21:13:00 53° 106° (ESE) 1,016 3.8 -13.9°
Drops below altitude 10° 21:18:24 10° 31° (NNE) 2,430 6.2 -14.8°
Sets 21:20:52 0° 27° (NNE) 3,359 7.0 -15.2°
